Wind_Speed
14 13 11 12 8 6 8 7 7 7 8 8 6 6 6 6 4 4 4 3 2 3 4 6 7 8 9 11 12 10 9 11 13 15 17 18 17 16 14 14 17 19 19 18 17 14 13 13 13
10 8 6 8 10 10 8 7 6 5 5 7 5 5 5 6 5 4 5 5 5 6 6 7 8 8 8 9 10 8 7 8 10 13 15 16 16 14 14 15 17 18 18 18 19 16 14 13 13
9 7 5 5 7 9 8 7 5 3 2 2 2 2 4 5 5 4 4 5 6 8 8 9 9 10 9 8 9 8 7 6 8 9 11 13 14 14 14 15 17 18 18 19 19 19 17 15 14
10 9 6 5 7 10 9 8 4 1 2 2 2 1 1 2 4 5 4 4 5 7 8 9 10 11 10 9 9 11 11 10 10 11 10 11 13 14 15 15 16 17 17 17 19 19 19 17 15
10 8 2 2 9 10 9 7 5 5 3 3 5 6 5 4 4 7 7 5 6 8 8 9 10 11 12 12 12 13 15 15 15 14 12 12 12 13 14 16 16 16 16 16 17 18 18 18 16
11 5 1 2 5 8 8 9 11 13 5 3 5 8 7 5 5 7 9 8 7 8 9 10 11 11 12 12 13 13 14 15 15 14 14 14 13 12 12 14 15 16 16 16 17 18 17 16 15
14 7 5 5 5 5 4 9 13 14 10 7 7 9 8 6 4 6 9 11 9 9 10 11 12 12 11 11 10 10 11 11 12 12 12 11 11 10 10 12 13 14 14 15 16 16 17 16 16
18 13 11 10 9 6 2 9 13 13 11 8 8 8 7 5 4 5 7 10 11 11 12 12 12 11 10 10 9 8 8 9 9 9 9 10 11 11 12 13 14 13 13 13 14 14 14 16 17
22 20 17 16 12 9 6 9 11 12 14 12 9 7 7 7 7 7 7 10 11 11 11 12 12 12 11 12 12 13 13 14 14 14 15 15 14 14 13 14 14 14 14 15 14 13 13 14 16
22 24 23 22 19 12 8 8 11 15 18 18 15 10 9 9 10 11 11 11 14 13 13 13 14 15 16 17 19 20 21 21 21 21 21 21 19 18 18 17 18 17 17 16 17 16 15 16 17
22 25 26 24 20 14 9 10 14 20 23 24 23 19 15 15 17 17 16 15 16 18 20 21 21 21 22 22 24 25 25 25 25 26 26 26 25 25 25 24 23 22 21 20 19 18 18 18 19
22 24 26 25 21 14 11 12 15 23 27 29 29 26 22 19 20 23 24 23 23 23 23 25 27 27 28 27 28 28 29 30 30 30 30 30 30 29 29 29 29 29 28 27 25 23 22 22 23
25 26 26 24 23 19 17 16 17 26 32 34 34 32 30 27 24 24 25 27 29 29 28 28 30 32 33 34 33 33 33 35 36 35 35 35 34 33 33 32 32 32 33 32 31 29 27 27 27
29 28 26 23 23 24 25 25 25 30 35 38 38 37 37 34 31 29 28 29 31 32 33 33 34 35 37 38 39 39 39 40 40 41 41 41 38 36 36 36 35 35 35 35 34 33 32 32 31
32 31 29 27 27 28 31 31 30 32 35 37 38 38 38 37 36 35 34 33 32 33 35 38 39 39 40 40 41 42 43 43 42 42 40 38 35 33 34 35 35 36 36 36 35 33 34 36 36
33 32 32 31 31 32 34 35 33 32 33 34 35 37 38 38 38 37 37 36 35 34 34 37 39 40 41 41 41 41 41 40 40 38 37 36 36 35 35 36 35 36 38 38 37 36 36 38 39
32 32 30 30 31 32 32 31 29 27 26 28 32 36 38 37 35 35 36 37 35 34 34 36 37 37 38 37 37 37 38 39 39 38 38 39 39 38 38 39 39 40 41 41 40 39 38 39 42
25 23 20 20 20 21 22 22 22 24 26 29 33 36 36 33 30 32 36 40 41 39 36 35 35 35 36 36 36 37 38 39 38 38 39 40 41 41 42 42 43 43 44 43 42 41 41 42 43
15 15 14 15 15 17 19 22 23 26 29 34 36 36 34 31 30 32 34 37 38 39 40 39 37 35 36 36 37 38 40 41 41 41 41 42 42 42 42 42 42 42 43 43 43 43 43 44 45
14 18 21 21 22 23 26 28 30 31 32 35 36 35 34 31 31 33 35 35 33 33 36 39 38 37 36 36 36 36 37 39 40 40 40 40 40 39 40 40 40 40 40 41 42 42 42 42 43
14 18 22 26 25 26 29 30 32 34 35 35 34 33 31 31 33 34 35 32 32 33 34 35 36 37 37 38 36 35 34 34 34 35 36 36 35 35 36 37 38 39 40 41 42 43 43 42 43
18 19 19 22 29 33 34 36 36 35 34 32 29 27 26 29 32 35 34 33 33 34 35 34 34 35 36 37 38 39 38 36 35 35 35 36 37 36 36 37 39 41 42 43 43 43 44 45 45
17 17 18 18 20 25 30 34 30 26 24 21 20 20 23 28 30 30 31 32 33 34 35 37 39 39 39 40 41 42 43 42 40 39 39 39 39 40 40 41 42 43 43 43 42 43 44 45 46
11 11 11 13 14 16 19 23 19 17 17 17 19 21 24 27 29 29 30 30 31 31 33 35 37 40 41 43 43 44 44 44 43 43 42 41 41 41 41 42 42 43 43 43 43 44 45 46 47
8 8 7 7 10 12 15 17 16 16 17 19 21 23 25 27 28 29 29 27 26 27 28 31 33 36 39 42 44 45 45 45 45 44 44 43 42 41 41 42 42 43 44 45 45 45 45 46 47
10 11 10 8 8 9 13 16 16 17 20 23 24 25 26 27 27 28 29 28 28 29 30 31 32 34 36 38 40 42 43 44 45 45 46 45 44 42 42 42 43 43 45 46 47 46 45 45 46
10 12 12 11 10 10 13 18 20 22 24 25 26 25 24 25 27 30 32 33 33 34 35 36 35 35 36 37 38 39 40 42 42 43 45 46 46 45 44 44 43 44 45 45 43 41 39 41 41
10 10 12 12 13 12 11 16 21 24 26 26 27 27 27 27 28 30 32 33 34 36 37 37 37 37 36 36 37 37 37 38 39 40 41 42 43 44 44 44 44 44 42 39 35 33 32 32 32
11 9 10 11 13 13 10 8 16 23 26 28 29 28 29 29 30 32 33 33 33 35 37 38 39 39 38 38 37 35 34 34 35 36 38 39 40 41 40 40 40 38 36 31 26 23 21 22 22
15 15 15 16 16 17 16 10 17 23 27 29 30 32 33 35 36 37 37 37 36 36 38 40 40 40 40 38 38 37 34 32 32 32 32 33 34 34 35 34 32 31 28 23 19 17 17 17 20
Wind_Direction
133 130 110 73 64 109 102 104 101 85 75 71 68 66 57 58 51 14 26 18 357 13 5 8 10 16 20 22 25 33 37 31 28 25 21 19 17 17 20 17 12 9 9 9 8 8 10 13 13
149 145 109 85 85 98 95 93 92 76 75 79 67 53 48 48 33 -0 33 23 5 359 347 349 350 353 4 14 21 26 24 20 19 19 18 15 12 9 7 4 4 3 4 7 7 4 4 8 8
159 145 123 130 103 96 86 71 69 58 49 73 88 59 37 29 14 344 12 19 11 7 356 351 346 343 347 357 1 359 349 342 354 3 5 4 2 359 354 351 352 355 356 357 2 2 359 -0 1
159 137 124 147 112 87 71 60 49 347 296 316 297 286 332 357 330 313 317 347 354 359 358 354 349 344 339 337 337 337 337 331 331 338 343 349 350 349 348 347 346 347 346 347 349 356 357 353 353
177 142 141 133 93 65 44 33 10 321 299 324 316 313 317 329 313 300 295 305 325 329 333 334 332 331 330 329 328 329 332 331 331 332 333 336 340 341 344 346 345 341 336 334 335 341 347 350 349
182 162 256 200 104 67 11 349 338 320 300 299 300 298 303 311 308 300 298 300 312 320 317 317 315 317 326 333 335 335 336 336 334 334 334 337 342 346 347 347 345 342 335 328 323 324 328 333 336
179 159 183 181 121 97 353 324 321 314 305 298 305 303 304 307 307 298 299 302 306 309 308 308 307 312 321 328 332 335 339 341 342 343 342 343 347 346 342 337 335 336 335 331 325 318 315 317 320
179 170 192 182 153 159 235 293 301 305 304 305 316 320 326 347 4 341 317 308 306 304 304 306 303 302 303 305 307 311 315 319 321 320 319 320 321 321 320 320 317 315 320 325 327 324 320 317 315
188 186 208 219 210 195 210 259 274 288 300 306 319 340 350 353 1 357 342 325 315 309 305 305 300 296 292 291 294 296 297 300 301 298 298 302 302 303 304 306 307 306 307 311 314 315 314 315 315
196 198 216 231 245 244 219 243 274 292 300 303 305 310 322 319 322 323 319 316 311 306 301 298 295 292 292 293 295 297 298 298 297 295 294 295 295 295 294 292 293 295 298 301 304 306 304 304 304
202 205 223 235 253 264 240 242 279 292 295 297 297 298 306 307 309 310 304 298 295 293 291 290 288 288 290 292 294 296 298 299 297 294 293 293 295 294 293 291 288 287 288 290 290 293 294 295 296
212 212 226 238 248 258 257 253 271 286 288 290 294 298 301 303 308 306 301 296 290 285 284 287 288 287 287 287 287 288 290 292 293 292 290 290 291 291 290 290 289 289 289 288 287 285 284 284 286
230 226 232 244 253 257 258 258 267 280 283 287 292 296 299 299 298 294 290 290 288 286 284 284 284 284 284 284 283 283 284 286 288 288 287 287 289 289 289 286 286 285 285 285 285 284 280 281 284
245 245 245 251 260 263 263 262 266 272 278 285 292 296 298 298 294 289 283 281 281 282 283 283 281 279 279 281 283 283 283 283 284 286 287 288 289 288 287 285 283 281 280 281 282 283 281 279 281
246 252 255 255 256 261 265 267 270 273 278 284 289 294 298 300 301 298 292 287 282 279 280 281 282 281 280 280 281 281 281 281 281 283 283 283 281 278 277 278 280 279 279 279 280 279 278 279 281
246 252 256 257 258 259 262 266 268 272 278 284 291 297 301 304 306 303 300 295 289 283 280 280 280 281 282 282 283 282 281 281 281 281 278 277 277 275 274 276 277 278 279 279 279 277 274 276 279
244 248 251 255 257 257 260 264 270 275 280 288 293 296 297 300 303 303 301 298 293 287 282 279 279 280 281 281 281 281 282 282 282 283 281 279 277 275 274 274 275 275 277 278 278 278 276 276 279
244 246 246 249 255 259 262 266 271 274 278 283 285 285 287 291 298 302 303 303 300 296 289 282 280 279 280 280 280 281 281 281 281 281 280 280 279 277 274 273 272 273 274 277 277 278 277 276 277
229 227 221 226 230 236 243 246 248 259 272 281 284 286 289 295 302 304 304 303 301 299 296 292 288 286 284 283 281 281 280 280 280 279 278 277 277 276 275 274 273 273 274 275 277 278 278 278 279
214 220 216 221 230 231 236 243 248 255 269 281 285 288 291 297 301 302 302 301 302 301 298 295 294 293 291 289 286 283 280 279 278 277 277 277 278 277 276 275 275 275 276 277 278 278 278 279 280
228 235 228 228 238 247 251 258 265 273 279 282 284 286 288 292 297 300 302 298 299 301 298 293 293 295 296 295 292 288 285 282 280 280 281 282 281 280 278 277 279 280 281 280 279 279 279 279 279
252 259 257 244 240 242 252 259 263 269 274 278 280 282 287 296 302 301 298 292 293 297 297 295 292 293 295 295 293 291 288 285 283 282 283 284 285 284 282 281 282 284 285 284 282 280 279 279 278
267 273 271 265 254 247 245 254 263 269 271 274 279 288 295 298 299 299 296 291 291 293 294 296 298 298 297 295 293 291 289 287 286 285 284 285 285 284 282 282 283 285 285 285 283 282 281 280 279
277 283 283 282 275 260 253 256 260 269 278 286 291 292 292 294 299 303 304 302 300 299 297 296 296 296 295 293 290 288 287 286 285 284 284 283 282 282 283 283 284 284 284 285 285 284 282 280 277
292 298 303 287 277 276 275 273 270 275 279 285 292 294 297 303 307 306 305 308 310 310 310 309 307 305 301 296 292 289 287 286 284 283 283 284 284 284 285 286 287 287 286 285 285 284 281 277 274
301 307 308 302 292 281 280 277 278 279 286 294 297 297 299 302 306 310 315 324 327 327 327 326 324 319 312 307 302 295 290 288 286 284 284 284 286 286 287 287 289 289 287 286 286 283 279 273 269
302 309 314 314 306 284 271 277 281 287 292 294 295 297 303 312 319 323 325 328 329 329 331 333 334 331 325 319 314 307 299 293 290 289 288 287 287 287 287 287 288 288 288 288 287 283 275 268 264
293 293 302 308 306 292 276 279 286 292 293 298 308 315 319 321 321 320 321 323 323 322 323 326 329 331 330 326 322 316 308 300 295 293 293 292 290 289 289 288 288 289 288 287 283 277 271 266 260
315 310 304 306 315 314 308 296 292 290 295 303 311 316 317 316 315 316 317 318 317 315 314 316 321 324 325 326 327 323 314 304 298 295 294 293 292 290 288 287 288 288 287 284 276 270 265 255 246
313 316 312 307 309 309 304 298 289 288 293 299 306 311 314 313 312 312 311 311 311 310 310 311 314 316 317 320 324 325 319 309 302 298 296 296 295 293 291 290 289 287 282 274 262 252 242 232 224
Height
5934 5933 5933 5934 5934 5933 5933 5933 5931 5931 5933 5933 5933 5933 5934 5935 5935 5936 5934 5932 5932 5932 5932 5933 5933 5933 5933 5933 5933 5932 5932 5931 5930 5928 5927 5926 5925 5923 5922 5921 5919 5917 5915 5913 5911 5910 5908 5907 5905
5934 5934 5935 5936 5935 5934 5934 5933 5933 5933 5934 5935 5936 5936 5935 5936 5935 5934 5934 5933 5932 5933 5933 5934 5934 5934 5934 5933 5933 5933 5932 5931 5930 5929 5928 5926 5925 5924 5923 5921 5920 5918 5916 5914 5912 5910 5908 5907 5906
5934 5934 5936 5936 5935 5934 5934 5933 5933 5933 5934 5936 5937 5937 5937 5937 5935 5934 5935 5934 5933 5934 5934 5934 5934 5934 5934 5934 5933 5932 5932 5931 5930 5929 5927 5926 5925 5925 5923 5922 5920 5919 5917 5915 5912 5910 5909 5907 5906
5936 5936 5937 5936 5934 5933 5934 5934 5934 5933 5934 5935 5935 5937 5938 5938 5936 5934 5934 5934 5934 5933 5933 5933 5933 5933 5933 5933 5932 5932 5931 5931 5930 5929 5927 5926 5925 5925 5923 5922 5920 5919 5917 5915 5913 5911 5909 5907 5906
5937 5938 5938 5934 5932 5932 5933 5933 5933 5933 5933 5934 5934 5935 5937 5938 5936 5933 5933 5934 5934 5933 5933 5933 5933 5933 5932 5931 5931 5931 5930 5930 5929 5928 5927 5925 5925 5924 5923 5921 5919 5918 5916 5915 5913 5911 5909 5907 5906
5937 5937 5936 5932 5931 5932 5932 5932 5933 5934 5933 5933 5934 5934 5935 5937 5936 5933 5932 5933 5933 5932 5931 5931 5931 5931 5931 5930 5930 5929 5928 5928 5927 5926 5925 5924 5923 5922 5921 5919 5917 5916 5914 5913 5911 5910 5908 5906 5905
5937 5936 5932 5930 5930 5932 5932 5932 5933 5932 5932 5933 5934 5933 5933 5935 5936 5933 5931 5931 5931 5931 5930 5930 5929 5929 5929 5928 5928 5927 5926 5925 5924 5923 5922 5921 5921 5920 5919 5917 5915 5913 5911 5910 5909 5907 5906 5905 5903
5934 5934 5929 5928 5929 5932 5933 5933 5932 5930 5930 5932 5933 5933 5933 5934 5935 5934 5932 5931 5930 5930 5929 5929 5928 5927 5927 5926 5925 5924 5923 5922 5921 5920 5919 5918 5917 5917 5916 5914 5912 5910 5908 5907 5906 5904 5903 5902 5901
5931 5931 5927 5927 5928 5930 5932 5932 5931 5930 5931 5932 5933 5934 5934 5933 5934 5934 5933 5931 5930 5930 5929 5928 5927 5926 5925 5924 5923 5922 5921 5919 5918 5917 5916 5915 5914 5913 5911 5910 5909 5907 5905 5904 5902 5901 5900 5899 5898
5929 5928 5926 5926 5927 5929 5930 5930 5930 5929 5929 5929 5931 5933 5934 5933 5932 5933 5933 5932 5929 5928 5927 5926 5926 5925 5924 5922 5921 5920 5918 5917 5916 5914 5913 5912 5910 5909 5907 5906 5904 5903 5901 5900 5898 5897 5896 5895 5894
5926 5926 5924 5925 5927 5928 5929 5929 5927 5925 5925 5926 5927 5929 5931 5930 5929 5929 5930 5930 5929 5926 5924 5923 5922 5921 5920 5919 5917 5916 5914 5913 5912 5910 5909 5907 5906 5904 5902 5901 5899 5897 5896 5895 5894 5893 5892 5890 5889
5923 5923 5922 5924 5926 5928 5928 5927 5926 5922 5920 5921 5922 5924 5926 5926 5926 5925 5924 5923 5923 5923 5921 5919 5917 5916 5914 5913 5912 5911 5909 5907 5906 5905 5903 5901 5900 5899 5897 5895 5892 5891 5890 5889 5888 5887 5886 5885 5883
5919 5920 5921 5923 5924 5926 5925 5925 5924 5918 5914 5914 5916 5918 5920 5921 5922 5921 5920 5918 5916 5916 5916 5915 5913 5909 5907 5905 5905 5904 5903 5900 5898 5897 5896 5895 5893 5891 5890 5888 5886 5884 5883 5882 5881 5880 5879 5878 5876
5914 5916 5919 5921 5921 5921 5920 5920 5919 5914 5910 5909 5910 5911 5912 5912 5914 5914 5913 5911 5909 5908 5907 5906 5905 5903 5901 5899 5898 5896 5895 5893 5891 5889 5887 5885 5884 5882 5881 5879 5878 5877 5875 5874 5873 5871 5870 5869 5869
5909 5912 5914 5916 5916 5915 5914 5914 5914 5909 5908 5906 5904 5904 5903 5903 5903 5903 5902 5901 5900 5899 5897 5895 5895 5894 5892 5891 5890 5887 5885 5883 5881 5880 5877 5875 5873 5872 5871 5870 5869 5867 5866 5865 5864 5863 5862 5861 5860
5905 5906 5908 5909 5909 5909 5909 5908 5908 5906 5904 5902 5899 5898 5897 5896 5895 5894 5892 5890 5890 5890 5888 5885 5884 5883 5882 5880 5878 5876 5873 5871 5870 5869 5868 5866 5864 5862 5861 5860 5859 5857 5856 5855 5854 5854 5852 5851 5851
5898 5899 5900 5901 5902 5902 5902 5902 5901 5900 5899 5899 5897 5895 5893 5892 5890 5887 5884 5882 5882 5881 5879 5876 5874 5873 5871 5869 5867 5865 5862 5860 5859 5858 5857 5855 5854 5853 5853 5851 5849 5848 5846 5845 5844 5843 5842 5842 5841
5891 5892 5894 5895 5896 5897 5896 5896 5895 5894 5895 5894 5893 5891 5890 5890 5888 5884 5879 5874 5871 5870 5870 5868 5866 5864 5863 5860 5858 5856 5854 5852 5851 5849 5847 5845 5843 5842 5841 5840 5839 5838 5835 5834 5833 5832 5832 5831 5830
5887 5888 5889 5889 5888 5889 5889 5890 5890 5888 5887 5886 5885 5884 5883 5884 5883 5880 5876 5871 5866 5862 5859 5858 5857 5857 5855 5853 5850 5848 5845 5843 5841 5839 5837 5835 5833 5831 5829 5829 5829 5828 5826 5824 5823 5822 5821 5821 5820
5882 5883 5883 5884 5884 5885 5885 5885 5885 5884 5884 5881 5879 5877 5877 5876 5875 5872 5870 5866 5862 5857 5853 5850 5847 5845 5844 5842 5840 5838 5836 5833 5831 5828 5827 5825 5823 5821 5819 5818 5818 5817 5816 5815 5814 5812 5811 5810 5809
5878 5878 5879 5880 5880 5880 5880 5879 5878 5877 5877 5876 5874 5873 5872 5871 5869 5866 5863 5859 5856 5852 5849 5846 5842 5839 5836 5833 5831 5828 5826 5824 5822 5820 5818 5816 5814 5812 5811 5809 5808 5807 5806 5805 5804 5803 5801 5800 5799
5874 5874 5875 5876 5877 5876 5876 5873 5873 5872 5871 5869 5868 5867 5866 5864 5862 5860 5857 5854 5850 5847 5843 5840 5837 5834 5830 5826 5823 5820 5818 5816 5813 5811 5809 5807 5805 5803 5801 5800 5798 5797 5795 5793 5792 5791 5790 5790 5789
5870 5870 5869 5869 5869 5869 5869 5867 5867 5865 5863 5862 5862 5861 5860 5859 5857 5854 5851 5847 5844 5841 5837 5832 5828 5825 5822 5818 5815 5812 5808 5806 5804 5802 5800 5798 5796 5794 5792 5790 5789 5787 5785 5783 5781 5780 5778 5778 5777
5867 5866 5865 5864 5863 5863 5862 5861 5861 5858 5857 5857 5856 5856 5855 5853 5851 5847 5844 5840 5836 5832 5828 5824 5820 5816 5812 5808 5805 5802 5799 5796 5794 5792 5790 5789 5787 5784 5782 5780 5778 5776 5774 5772 5771 5769 5767 5766 5765
5864 5863 5862 5861 5859 5859 5857 5856 5856 5854 5853 5852 5851 5849 5847 5845 5843 5840 5836 5833 5829 5825 5820 5817 5813 5808 5803 5798 5794 5791 5788 5785 5782 5781 5779 5777 5776 5773 5771 5768 5766 5764 5763 5761 5759 5757 5755 5753 5752
5861 5860 5860 5859 5857 5856 5853 5851 5851 5849 5847 5845 5844 5842 5840 5838 5836 5831 5827 5823 5820 5816 5812 5809 5805 5800 5795 5790 5784 5780 5776 5772 5770 5768 5766 5765 5763 5762 5759 5756 5754 5752 5750 5748 5746 5743 5741 5740 5739
5859 5857 5857 5856 5854 5852 5850 5847 5845 5843 5842 5839 5837 5836 5835 5832 5827 5822 5818 5815 5812 5808 5805 5801 5797 5792 5787 5781 5776 5770 5765 5761 5758 5755 5753 5752 5750 5749 5746 5744 5742 5740 5737 5735 5732 5730 5728 5727 5728
5857 5855 5854 5852 5850 5849 5847 5844 5841 5838 5836 5834 5831 5829 5827 5824 5820 5817 5814 5811 5807 5803 5800 5796 5791 5786 5780 5774 5768 5762 5757 5752 5748 5745 5743 5740 5738 5736 5734 5732 5730 5728 5725 5723 5721 5719 5717 5717 5718
5853 5852 5850 5849 5847 5844 5843 5844 5838 5834 5831 5828 5826 5823 5821 5818 5815 5812 5808 5806 5803 5798 5794 5789 5784 5779 5773 5767 5761 5755 5749 5744 5740 5737 5734 5730 5727 5725 5722 5720 5718 5716 5714 5712 5711 5710 5709 5709 5710
5850 5848 5846 5844 5842 5840 5838 5841 5834 5829 5826 5823 5821 5818 5815 5811 5808 5805 5802 5799 5795 5791 5786 5781 5776 5772 5766 5760 5754 5748 5742 5737 5733 5729 5726 5722 5718 5715 5712 5709 5707 5706 5705 5704 5704 5703 5704 5704 5706